Погода в Омске

Погода в Омске : погода сейчас, прогноз погоды и архив. Всё, что Вы хотите узнать о погоде в Омске!

Хотите узнать прогноз погоды в Омске? Тогда Вам сюда: Погода в Омске

Поиск расширенной информации на нашем сайте:

Другие новости

Новости СМИ2

Главная страница сайта

Новости сайта

03.07.2017

Напоминаем, что на нашем специализированном сайте Метеоцентр.Азия вы можете получить высокодетализированные автоматические прогнозы погоды по пунктам России, СНГ и мира в авиационном формате (включающие направление и скорость ветра, видимость, явления погоды, количество и форму облачности, нижнюю и верхнюю границу облачности).


Погода в Омске - сегодня

Время (UTC), дата Ветер
(°,м/с) 
Видим.   Явления Облачность Т
(°С)
Тd
(°С)
f(%) Тe
(°С)
Pmin
(гПа)
dP
(гПа)
Po
(мм)
O2
(г/м3)
Тmin Tmax R s Состояние
почвы
00 22.02.18 270 (З) 10 км    ясно 
-12.4 -14.8 82 -16  1013.3  2.7  748  317           
03 22.02.18 270 (З) 6000 м  слаб. ливневой снег  10/8 600 м кучево-дожд., средняя 
[Cb cap|Ac und]
-12.2 -14.2 85 -16  1016.5  3.1  750  318  -13.3    0.8  43  равномерный
сухой снег
100% 
06 22.02.18 240 (ЮЗ) 20000 м  {ливн. осадки}  ясно 
-8.7 -12.5 74 -12  1018.4  2.1  752  314           
09 22.02.18 230 (ЮЗ) 20000 м    ясно 
-6.6 -13.4 58 -9  1019.2  0.8  753  312           
12 22.02.18 210 (ЮЗ) 20000 м    4/0 верхняя 
[Ci fib]
-9.7 -14.3 69 -11  1020.1  0.7  753  316           
18 22.02.18 200 (Ю) 10 км    10/0 средняя, верхняя 
[Ac trans|Ci fib]
-13 -15.1 84 -15  1019.5  -0.6  752  320           
21 22.02.18 250 (З) 10 км    10/0 средняя, верхняя 
[Ac trans|Ci sp]
-12 -14.9 79 -14  1019.4  752  318           
00 23.02.18 260 (З) 4000 м  слаб. снег  10/0 средняя 
[As op]
-14 -16.4 82 -18  1020.6  753  321           
03 23.02.18 250 (З) 7000 м  слаб. снег  10/0 средняя 
[As op]
-14.8 -16.9 84 -18  1021.5  0.8  754  323  -14.8      43  равномерный
сухой снег
100% 
06 23.02.18 240 (ЮЗ) 20000 м  {снег}  ясно 
-12.7 -16.7 72 -15  1021.9  0.6  754  320  -14.9         
09 23.02.18 220 (ЮЗ) 20000 м    4/0 верхняя 
[Ci fib]
-10 -16.2 60 -12  1021.9  0.2  754  317           
12 23.02.18 220 (ЮЗ) 20000 м    ясно 
-11.8 -17.3 64 -14  1021.9  0.1  754  319           
15 23.02.18 190 (Ю) 10 км    ясно 
-16.6 -19.6 78 -17  1022  -0.2  754  325    -9.7  0.0     
18 23.02.18 230 (ЮЗ) 4000 м  дымка  ясно 
-19.4 -21.8 81 -20  1022.2  754  329           
21 23.02.18 220 (ЮЗ) 4000 м  дымка  ясно 
-20.4 -23 80 -21  1021.9  -0.4  754  330           
00 24.02.18 220 (ЮЗ) 4000 м  дымка [диам. изморози 4 мм]  ясно 
-20.9 -23.7 78 -21  1021.8  0.1  754  331           
03 24.02.18 230 (ЮЗ) 8000 м  дымка{снег} [диам. изморози 5 мм]  ясно 
-21.8 -24.8 77 -22  1022.4  0.5  754  332  -21.8    0.0  43  равномерный
сухой снег
100% 
06 24.02.18 210 (ЮЗ) 20000 м  {снег} [диам. изморози 6 мм]  ясно 
-15.7 -18.5 79 -16  1023  755  324           
09 24.02.18 250 (З) 20000 м  [диам. изморози 0 мм]  ясно 
-12.7 -18.2 63 -15  1023.4  0.6  755  321           
12 24.02.18 240 (ЮЗ) 20000 м    ясно 
-13.9 -18.9 66 -16  1024.5  0.9  756  323           
15 24.02.18 230 (ЮЗ) 10 км    ясно 
-18.4 -21.4 77 -19  1026.2  1.4  757  329    -12.1  0.0     
18 24.02.18 220 (ЮЗ) 10 км    ясно 
-20.6 -23 81 -21  1027.6  1.2  758  332           
21 24.02.18 210 (ЮЗ) 10 км    ясно 
-21.8 -24.4 79 -22  1028.9  1.1  759  334           
00 25.02.18 220 (ЮЗ) 10 км    ясно 
-23.5 -26.3 78 -24  1030.1  760  337           
03 25.02.18 170 (Ю) 9000 м  дымка  8/0 верхняя 
[Ci fib]
-23.2 -26.3 76 -24  1031  761  337  -24.4      42  равномерный
сухой снег
100% 
Время (UTC), дата Ветер
(°,м/с) 
Видим.   Явления Облачность Т
(°С)
Тd
(°С)
f(%) Тe
(°С)
Pmin
(гПа)
dP
(гПа)
Po
(мм)
O2
(г/м3)
Тmin Tmax R s Состояние
почвы

Для получения пояснительной информации подведите курсор к названию столбца.

ПОГОДА в Омске - архив

Всё, что Вы хотите узнать о погоде в Омске - удобно и подробно!

Выберите нужную дату (начиная с 1 января 2015* года) и нажмите кнопку "Найти".
Будут отображены архивные сводки погоды по пункту Омск, начиная с указанной даты.


Отображать данные в формате CSV (для использования в таблицах Excel)


Внимание! Наш архив погоды предназначен исключительно для личного некоммерческого использования в познавательных целях. Если Вам необходимы официальные справки о состоянии погоды (для производственных, юридических, коммерческих и т.п. целей), обращайтесь в органы Росгидромета.

*Примечание: данная дата относится к архиву по метеостанциям СССР (Россия, СНГ, Балтия).
Архив по метеостанциям Зарубежной Европы и Азии (кроме Китая) хранится 10 дней, по другим регионам земного шара (Китай, Африка, Америка, Австралия, Океания) - 1 день.

Омск - район местоположения метеостанции


Название, широта, долгота, высота метеостанции:
Омск (город) 55°ш. 73.4°д. 122 м над ур. моря [Российская Федерация]

Дополнительная информация

В oтличие oт бoльшинства пoгoдных сайтoв мы публикуем пoдрoбную метеoинфoрмацию в детальнoм прoфессиoнальнoм фoрмате.

Характеристики температуры и влажнoсти вoздуха измеряются на высoте 2 м в тени вдали oт зданий и деревьев.
Скoрoсть ветра измеряется на высoте 10 м (на урoвне рoста челoвека скoрoсть ветра ниже в 1.5-2 раза). Если метеoстанция нахoдится в гoрoде или в лесу, тo скoрoсть ветра занижена на 2-4 м/с пo сравнению с oткрытым местoм. Скoрoсть ветра над акватoриями крупных рек и oзёр, а также на вершинах хoлмoв на 2-5 м/с выше, чем в oбычных услoвиях.
Атмoсфернoе давление в разных тoчках местнoсти мoжет значительнo oтличаться oт давления на метеoстанции, в зависимoсти oт услoвий рельефа (при пoдъёме на 10 м давление пoнижается примернo на 1 мм рт.ст.).